Terminal Aerodrome Forecast
Issued by NWS Cleveland, OH

Home | Current Version | Previous Version | Graphics & Text | Print | Product List | Glossary On
Versions: 1 2 3 4 5 6 7 8 9 10 11 12 13 14 15 16 17 18 19 20 21
000
FTUS41 KCLE 131756
TAFERI
TAF
KERI 131756Z 1318/1418 20012KT 1SM -SN OVC025
     FM132000 24012KT 3SM -SHSN OVC015
     FM132200 20011KT 1/2SM SN OVC015
      TEMPO 1322/1402 OVC010
     FM140600 08004KT 1SM -SHSN BKN015 OVC018
     FM141000 01010KT P6SM SCT014 OVC015
     FM141200 34012KT 5SM -SHSN OVC020
     FM141300 34014KT P6SM VCSH OVC035=

USA.gov is the U.S. government's official web portal to all federal, state and local government web resources and services.